Regional Weather Roundup
Issued by NWS Goodland, KS

Home | Current Version | Previous Version | Text Only | Print | Product List | Glossary Off
Versions: 1 2 3 4 5 6 7 8 9 10 11 12 13 14 15 16 17 18 19 20 21 22 23 24 25 26 27 28 29 30 31 32 33 34 35 36 37 38 39 40 41 42 43 44 45 46 47 48 49 50

000
ASUS43 KGLD 122108
RWRGLD

GOODLAND FORECAST AREA HOURLY WEATHER ROUNDUP
NATIONAL WEATHER SERVICE GOODLAND KS
200 PM MST FRI FEB 12 2016

...OFFICIAL OBSERVATIONS...

CITY           SKY/WX    TMP DP  RH WIND       PRES   REMARKS
GOODLAND KS    CLOUDY    35  31  85 E17       30.34F
HILL CITY KS   CLOUDY    37  29  72 E12       30.43F
IMPERIAL NEB   CLOUDY    36  30  79 E7        30.37F
MCCOOK NEB     CLOUDY    37  30  75 E7        30.40F
AKRON CO       MOSUNNY   39  33  79 E16       30.28F
BURLINGTON CO  CLOUDY    44  35  70 E17       30.29F
LIMON CO       SUNNY     52  30  43 S8        30.25F
$$

...UNOFFICIAL OBSERVATIONS...

CITY           SKY/WX    TMP DP  RH WIND       PRES   REMARKS
COLBY KS       CLOUDY    34  34 100 NE10      30.39S
GOVE KS          N/A     36  32  85 MISG        N/A
LENORA KS        N/A     35  32  89 MISG        N/A
NORTON KS      CLOUDY    36  27  69 E7        30.41S
SHARON SPRINGS   N/A     50  37  62 SE6G14      N/A
KIT CARSON CO    N/A     57  31  38 MISG        N/A
YUMA CO          N/A     39  33  79 SE12        N/A
$$



USA.gov is the U.S. government's official web portal to all federal, state and local government web resources and services.